W7YP Weather Reports


Display with metric or nautical units.
time (UTC)temp
F
wind
direction
speed
MPH
gust
MPH
rain 1hr
in
rain 24hr
in
rain mn
in
humidity
%
barometer
mb
20260904164730 49 302 0.0 0.0 0.00 0.16 0.03 97 1015.3
20260904164007 49 302 0.0 0.0 0.00 0.16 0.03 97 1015.1
20260904163458 49 302 0.0 1.0 0.00 0.16 0.03 98 1015.0
20260904162953 48 302 0.0 1.0 0.00 0.16 0.03 98 1015.0
20260904162442 48 302 0.0 0.0 0.00 0.16 0.03 98 1014.9
20260904161945 48 302 0.0 0.0 0.00 0.16 0.03 98 1014.9
20260904161438 48 302 0.0 0.0 0.00 0.17 0.03 98 1014.7
20260904160938 48 302 0.0 0.0 0.01 0.17 0.03 98 1014.6
20260904160423 48 302 0.0 0.0 0.01 0.17 0.03 98 1014.6
20260904155923 48 302 0.0 0.0 0.01 0.17 0.03 97 1014.5
20260904155419 48 302 0.0 0.0 0.01 0.17 0.03 97 1014.4
20260904154914 48 302 0.0 0.0 0.02 0.17 0.03 97 1014.4
20260904154633 48 302 0.0 0.0 0.02 0.17 0.03 97 1014.4
20260904153914 48 302 0.0 0.0 0.02 0.17 0.03 97 1014.3
20260904153633 48 302 0.0 0.0 0.02 0.17 0.03 97 1014.4
20260904152914 48 302 0.0 0.0 0.02 0.17 0.03 98 1014.5
20260904152411 48 302 0.0 0.0 0.02 0.17 0.03 98 1014.4
20260904151904 47 302 0.0 0.0 0.02 0.17 0.03 98 1014.4
20260904151624 47 302 0.0 0.0 0.02 0.17 0.03 98 1014.4
20260904150904 47 302 0.0 0.0 0.01 0.16 0.02 97 1014.4
20260904150350 47 302 0.0 0.0 0.01 0.16 0.02 97 1014.4
20260904145850 47 302 0.0 0.0 0.02 0.16 0.02 97 1014.4
20260904145350 47 302 0.0 0.0 0.02 0.16 0.02 97 1014.3
20260904144849 47 302 0.0 0.0 0.01 0.16 0.01 97 1014.3
20260904144345 47 302 0.0 0.0 0.01 0.16 0.01 97 1014.1
20260904144107 47 302 0.0 0.0 0.01 0.16 0.01 97 1014.0
20260904143341 46 302 0.0 0.0 0.01 0.16 0.01 97 1014.0
20260904142837 46 302 0.0 0.0 0.01 0.16 0.01 97 1013.9
20260904142821 46 302 0.0 0.0 0.01 0.16 0.01 97 1013.7
20260904142058 46 302 0.0 0.0 0.01 0.16 0.01 97 1013.6
20260904141555 46 302 0.0 0.0 0.01 0.17 0.01 97 1013.5
20260904140836 46 302 0.0 0.0 0.01 0.17 0.01 97 1013.5
20260904140332 46 302 0.0 0.0 0.01 0.18 0.01 97 1013.5
20260904140054 46 302 0.0 0.0 0.00 0.17 0.00 97 1013.4
20260904135317 46 302 0.0 0.0 0.00 0.17 0.00 97 1013.3
20260904134811 46 302 0.0 0.0 0.00 0.18 0.00 97 1013.3
20260904134311 46 302 0.0 0.0 0.00 0.18 0.00 97 1013.3
20260904133813 46 302 0.0 0.0 0.00 0.18 0.00 97 1013.1
20260904133307 46 302 0.0 0.0 0.00 0.18 0.00 96 1013.1
20260904132807 46 302 0.0 0.0 0.00 0.18 0.00 96 1013.1
20260904132751 46 302 0.0 0.0 0.00 0.19 0.00 96 1013.1
20260904132020 46 302 0.0 0.0 0.00 0.19 0.00 96 1013.0
20260904131258 45 302 0.0 0.0 0.00 0.19 0.00 96 1013.0
20260904130758 45 302 0.0 0.0 0.00 0.19 0.00 96 1012.9
20260904130258 45 302 0.0 0.0 0.00 0.19 0.00 96 1012.9
20260904125801 45 302 0.0 0.0 0.00 0.19 0.00 96 1012.8
20260904125519 46 302 0.0 0.0 0.00 0.19 0.00 100 1012.7
20260904124753 46 302 0.0 0.0 0.00 0.19 0.00 96 1012.7
20260904124249 46 302 0.0 0.0 0.00 0.19 0.00 96 1012.4
20260904123744 46 302 0.0 0.0 0.00 0.19 0.00 96 1012.4
20260904123239 46 302 0.0 0.0 0.00 0.19 0.00 96 1012.5
20260904122729 46 302 0.0 0.0 0.00 0.19 0.00 96 1012.7
20260904122214 46 302 0.0 0.0 0.00 0.19 0.00 96 1012.6
20260904121714 46 302 0.0 2.0 0.00 0.19 0.00 96 1012.6
20260904121214 46 302 0.0 6.0 0.00 0.19 0.00 96 1012.6
20260904120714 45 296 0.0 9.0 0.00 0.19 0.00 97 1012.5
20260904120210 45 350 1.0 10.0 0.00 0.19 0.00 97 1012.5
20260904115930 45 233 2.0 10.0 0.00 0.19 0.00 97 1012.4
20260904115210 44 348 1.0 6.0 0.00 0.19 0.00 97 1012.0
20260904114710 44 299 1.0 5.0 0.00 0.19 0.00 97 1011.7
20260904114656 44 294 0.0 3.0 0.00 0.19 0.00 97 1011.6
20260904113706 44 207 0.0 0.0 0.00 0.19 0.00 97 1011.4
20260904113424 44 207 0.0 0.0 0.00 0.19 0.00 97 1011.1
20260904112920 44 207 0.0 0.0 0.00 0.19 0.00 97 1011.0
20260904112156 44 207 0.0 0.0 0.00 0.19 0.00 97 1010.7
20260904111656 44 207 0.0 0.0 0.00 0.19 0.00 97 1010.8
20260904111156 44 207 0.0 0.0 0.00 0.19 0.00 97 1010.6
20260904110641 44 207 0.0 0.0 0.00 0.19 0.00 97 1010.8
20260904110141 44 207 0.0 0.0 0.00 0.19 0.00 97 1010.8
20260904105631 44 207 0.0 0.0 0.00 0.19 0.00 97 1010.2
20260904105129 45 207 0.0 0.0 0.00 0.19 0.00 97 1009.7
20260904104612 45 207 0.0 0.0 0.00 0.19 0.00 97 1009.3
20260904104107 45 207 0.0 0.0 0.00 0.19 0.00 97 1009.3
20260904103546 45 207 0.0 0.0 0.00 0.19 0.00 97 1009.8
20260904103044 45 207 0.0 1.0 0.00 0.19 0.00 97 1009.7
20260904102542 44 207 0.0 1.0 0.00 0.19 0.00 97 1009.5
20260904102306 44 207 0.0 0.0 0.00 0.19 0.00 97 1009.2
20260904101539 44 207 0.0 0.0 0.00 0.19 0.00 97 1009.3
20260904101027 44 207 0.0 0.0 0.00 0.19 0.00 97 1009.2
20260904100527 44 207 0.0 0.0 0.00 0.19 0.00 97 1009.1
20260904100023 44 207 0.0 0.0 0.00 0.19 0.00 97 1008.9
20260904095523 45 207 0.0 0.0 0.00 0.19 0.00 97 1008.9
20260904095023 45 207 0.0 0.0 0.00 0.19 0.00 97 1008.9
20260904094523 45 207 0.0 0.0 0.00 0.19 0.00 97 1008.9
20260904094024 45 207 0.0 0.0 0.00 0.19 0.00 97 1009.0
20260904093523 45 207 0.0 0.0 0.00 0.19 0.00 97 1009.0
20260904093018 45 207 0.0 0.0 0.00 0.19 0.00 97 1008.9
20260904092508 45 207 0.0 0.0 0.00 0.19 0.00 97 1008.8
20260904092006 45 207 0.0 0.0 0.00 0.19 0.00 97 1008.9
20260904091726 45 207 0.0 0.0 0.00 0.19 0.00 97 1009.1
20260904090951 45 207 0.0 0.0 0.00 0.19 0.00 97 1009.2
20260904090444 45 207 0.0 0.0 0.00 0.19 0.00 97 1009.3
20260904085944 45 207 0.0 0.0 0.00 0.19 0.00 97 1009.3
20260904085434 45 207 0.0 0.0 0.00 0.19 0.00 97 1009.3
20260904084934 45 207 0.0 0.0 0.00 0.19 0.00 97 1009.5
20260904084434 45 207 0.0 0.0 0.00 0.19 0.00 97 1009.3
20260904083933 45 207 0.0 0.0 0.00 0.19 0.00 96 1009.5
20260904083420 45 207 0.0 0.0 0.00 0.19 0.00 96 1009.6
20260904083132 45 207 0.0 0.0 0.00 0.19 0.00 96 1009.6
20260904082410 45 207 0.0 0.0 0.00 0.19 0.00 96 1009.7
20260904081910 45 207 0.0 0.0 0.00 0.19 0.00 96 1009.7
20260904081410 45 207 0.0 1.0 0.00 0.19 0.00 96 1009.7
20260904081128 45 207 0.0 1.0 0.00 0.19 0.00 96 1009.7
20260904080401 45 207 0.0 0.0 0.00 0.19 0.00 96 1009.8
20260904075856 45 207 0.0 0.0 0.00 0.19 0.00 96 1009.8
20260904075340 46 207 0.0 0.0 0.00 0.19 0.00 96 1009.8
20260904074840 46 207 0.0 0.0 0.00 0.19 0.00 96 1009.8
20260904074341 46 207 0.0 0.0 0.00 0.19 0.00 96 1009.8
20260904074105 46 207 0.0 1.0 0.00 0.19 0.00 96 1009.9
20260904073336 46 207 0.0 1.0 0.00 0.19 0.00 96 1009.9
20260904072837 46 207 0.0 0.0 0.00 0.19 0.00 96 1009.9
20260904072334 46 207 0.0 1.0 0.00 0.19 0.00 96 1009.8
20260904071824 46 207 0.0 1.0 0.00 0.19 0.00 96 1009.9
20260904071316 47 207 0.0 0.0 0.00 0.19 0.00 96 1010.1
20260904070816 47 207 0.0 0.0 0.00 0.19 0.00 96 1009.9
20260904070317 47 207 0.0 0.0 0.00 0.19 0.00 96 1010.0
20260904065817 47 207 0.0 0.0 0.00 0.19 0.00 96 1010.1
20260904065307 47 207 0.0 3.0 0.00 0.19 0.00 96 1010.0
20260904064803 47 207 0.0 3.0 0.00 0.19 0.00 96 1010.0
20260904064302 47 207 0.0 0.0 0.00 0.19 0.00 96 1010.0
20260904063758 47 207 0.0 0.0 0.00 0.19 0.00 96 1010.1
20260904063518 47 207 0.0 0.0 0.00 0.19 0.00 96 1010.2
20260904062742 47 207 0.0 0.0 0.00 0.19 0.00 96 1010.1
20260904062243 47 207 0.0 0.0 0.00 0.19 0.00 96 1010.2
20260904062002 47 207 0.0 0.0 0.00 0.19 0.00 96 1010.3
20260904061243 47 207 0.0 0.0 0.00 0.19 0.00 96 1010.6
20260904061007 47 207 0.0 0.0 0.00 0.19 0.00 96 1010.7
20260904060238 47 207 0.0 0.0 0.00 0.19 0.00 96 1010.6
20260904055739 47 207 0.0 0.0 0.00 0.19 0.19 96 1010.6
20260904055239 47 207 0.0 0.0 0.00 0.19 0.19 96 1010.7
20260904054742 47 207 0.0 0.0 0.00 0.19 0.19 96 1010.7
20260904054229 47 207 0.0 0.0 0.00 0.19 0.19 96 1010.8
20260904053729 47 207 0.0 0.0 0.00 0.19 0.19 96 1010.8
20260904053219 47 207 0.0 0.0 0.00 0.19 0.19 96 1010.9
20260904052714 47 207 0.0 0.0 0.00 0.19 0.19 96 1011.0
20260904052217 47 207 0.0 0.0 0.00 0.19 0.19 96 1011.0
20260904051937 48 207 0.0 0.0 0.00 0.19 0.19 96 1010.9
20260904051215 48 207 0.0 0.0 0.00 0.19 0.19 96 1011.0
20260904050716 48 207 0.0 0.0 0.00 0.19 0.19 96 1011.1
20260904050215 48 207 0.0 0.0 0.00 0.19 0.19 96 1011.2
20260904045710 48 207 0.0 0.0 0.00 0.19 0.19 96 1011.1
20260904045201 48 207 0.0 0.0 0.00 0.19 0.19 96 1011.2
20260904044704 48 207 0.0 0.0 0.00 0.19 0.19 96 1011.2
20260904044201 48 207 0.0 0.0 0.00 0.19 0.19 95 1011.4
20260904043659 48 207 0.0 0.0 0.00 0.19 0.19 95 1011.5
20260904043404 48 207 0.0 0.0 0.00 0.19 0.19 95 1011.5
20260904043245 48 207 0.0 0.0 0.00 0.19 0.19 95 1011.5
20260904042151 48 207 0.0 0.0 0.00 0.19 0.19 95 1011.6
20260904041651 49 207 0.0 0.0 0.00 0.19 0.19 95 1011.6
20260904041152 49 207 0.0 0.0 0.00 0.19 0.19 95 1011.4
20260904040655 49 207 0.0 0.0 0.00 0.19 0.19 95 1011.5
20260904040150 49 207 0.0 1.0 0.00 0.19 0.19 95 1011.6
20260904035647 49 207 0.0 1.0 0.00 0.19 0.19 95 1011.6
20260904035404 49 207 0.0 1.0 0.00 0.19 0.19 94 1011.8
20260904034645 49 205 0.0 0.0 0.00 0.19 0.19 94 1011.7
20260904034138 49 205 0.0 0.0 0.00 0.19 0.19 94 1011.8
20260904033638 50 205 0.0 0.0 0.00 0.19 0.19 94 1011.9
20260904033138 50 205 0.0 0.0 0.00 0.19 0.19 94 1012.0
20260904032638 50 205 0.0 0.0 0.00 0.19 0.19 94 1012.1
20260904032141 50 205 0.0 0.0 0.00 0.19 0.19 94 1012.0
20260904031616 51 205 0.0 0.0 0.00 0.19 0.19 94 1011.9
20260904031113 51 205 0.0 1.0 0.00 0.19 0.19 94 1012.0
20260904030608 51 205 0.0 1.0 0.00 0.19 0.19 94 1012.0
20260904030104 51 205 0.0 0.0 0.00 0.19 0.19 93 1012.1
20260904025603 51 205 0.0 1.0 0.00 0.19 0.19 93 1012.1
20260904025049 52 205 0.0 1.0 0.00 0.19 0.19 93 1012.0
20260904024804 52 205 0.0 0.0 0.00 0.19 0.19 93 1012.1
20260904024256 52 205 0.0 0.0 0.00 0.19 0.19 93 1012.0
20260904023542 53 205 0.0 0.0 0.00 0.19 0.19 93 1012.0
20260904023039 53 205 0.0 0.0 0.00 0.19 0.19 94 1011.9
20260904022524 53 205 0.0 0.0 0.00 0.19 0.19 94 1011.9
20260904022019 53 205 0.0 0.0 0.00 0.19 0.19 94 1011.9
20260904021519 53 205 0.0 0.0 0.00 0.19 0.19 94 1011.9
20260904021009 54 205 0.0 0.0 0.00 0.19 0.19 94 1011.9
20260904020738 54 205 0.0 0.0 0.00 0.19 0.19 94 1012.0
20260904020010 54 205 0.0 1.0 0.00 0.19 0.19 94 1011.9
20260904015505 54 205 0.0 1.0 0.00 0.19 0.19 94 1012.0
20260904015005 55 205 0.0 2.0 0.00 0.19 0.19 95 1012.0
20260904014505 55 205 0.0 2.0 0.00 0.19 0.19 94 1011.9
20260904013956 55 205 0.0 0.0 0.00 0.19 0.19 94 1011.9
20260904013455 55 205 0.0 0.0 0.00 0.19 0.19 95 1011.9
20260904012936 55 205 0.0 0.0 0.00 0.19 0.19 94 1012.0
20260904012437 55 205 0.0 0.0 0.00 0.19 0.19 94 1011.9
20260904011936 55 205 0.0 0.0 0.00 0.19 0.19 94 1012.0
20260904011426 56 205 0.0 0.0 0.00 0.19 0.19 94 1012.1
20260904011408 56 205 0.0 0.0 0.00 0.19 0.19 94 1012.0
20260904010425 56 205 0.0 0.0 0.00 0.19 0.19 94 1011.9
20260904005913 56 205 0.0 0.0 0.00 0.20 0.19 94 1011.9
20260904005406 56 205 0.0 0.0 0.00 0.20 0.19 94 1012.0
20260904004906 56 205 0.0 0.0 0.00 0.20 0.19 94 1012.0
20260904004407 56 205 0.0 0.0 0.00 0.21 0.19 94 1012.1
20260904003903 56 205 0.0 0.0 0.00 0.21 0.19 94 1012.4
20260904003402 56 205 0.0 0.0 0.00 0.22 0.19 94 1012.2
20260904002847 56 205 0.0 0.0 0.00 0.22 0.19 94 1012.4
20260904002350 57 205 0.0 0.0 0.00 0.23 0.19 94 1012.5
20260904001847 57 205 0.0 0.0 0.00 0.23 0.19 94 1012.2
20260904001343 57 205 0.0 0.0 0.00 0.24 0.19 94 1012.2
20260904000842 57 205 0.0 0.0 0.00 0.25 0.19 94 1012.1
20260904000343 57 205 0.0 2.0 0.00 0.27 0.19 94 1012.1
20260903235844 57 205 0.0 2.0 0.00 0.28 0.19 95 1012.2
20260903235343 57 205 0.0 0.0 0.00 0.29 0.19 95 1012.1
20260903234839 57 205 0.0 0.0 0.00 0.32 0.19 94 1012.2
20260903234338 57 205 0.0 0.0 0.00 0.34 0.19 94 1012.1
20260903233839 57 205 0.0 0.0 0.00 0.35 0.19 94 1012.4
20260903233554 57 205 0.0 0.0 0.00 0.36 0.19 94 1012.2
20260903232834 57 205 0.0 0.0 0.00 0.38 0.19 94 1012.2
20260903232334 57 205 0.0 0.0 0.00 0.39 0.19 94 1012.1
20260903231829 57 205 0.0 0.0 0.00 0.40 0.19 94 1012.2
20260903231806 57 205 0.0 0.0 0.00 0.41 0.19 94 1012.4
20260903230826 57 205 0.0 3.0 0.00 0.41 0.19 92 1012.4
20260903230325 57 205 0.0 3.0 0.00 0.42 0.19 91 1012.2
20260903225820 58 153 0.0 0.0 0.00 0.43 0.19 94 1012.4
20260903225320 58 153 0.0 0.0 0.00 0.43 0.19 94 1012.1
20260903224822 58 153 0.0 0.0 0.00 0.43 0.19 94 1012.2
20260903224311 58 153 0.0 0.0 0.01 0.43 0.19 94 1012.2
20260903223815 58 153 0.0 1.0 0.01 0.44 0.19 94 1012.2
20260903223300 57 153 0.0 3.0 0.01 0.44 0.19 94 1012.1
20260903222802 57 138 0.0 3.0 0.01 0.45 0.19 94 1012.2
20260903222301 57 199 0.0 0.0 0.01 0.47 0.19 93 1012.1
20260903221800 57 199 0.0 1.0 0.01 0.48 0.19 93 1012.1
20260903221301 57 199 0.0 4.0 0.01 0.49 0.19 92 1012.1
20260903220753 57 199 0.0 4.0 0.01 0.50 0.19 94 1012.0
20260903220512 56 242 0.0 2.0 0.01 0.51 0.19 95 1012.0
20260903215747 56 242 0.0 4.0 0.01 0.53 0.19 95 1012.1
20260903215241 56 242 0.0 4.0 0.01 0.55 0.19 95 1012.1
20260903214737 56 315 0.0 0.0 0.01 0.58 0.19 96 1012.0
20260903214232 56 315 0.0 0.0 0.00 0.60 0.18 96 1012.1
20260903213952 55 315 0.0 0.0 0.01 0.61 0.18 95 1012.1
20260903213227 55 315 0.0 0.0 0.02 0.61 0.18 95 1012.1
20260903212728 55 315 0.0 0.0 0.03 0.61 0.18 95 1012.0
20260903212227 55 315 0.0 0.0 0.04 0.62 0.18 95 1012.2
20260903211727 55 315 0.0 0.0 0.04 0.62 0.18 95 1012.2
20260903211227 55 315 0.0 1.0 0.04 0.62 0.18 95 1012.2
20260903210723 55 315 0.0 1.0 0.04 0.62 0.18 95 1012.1
20260903210223 55 315 0.0 0.0 0.04 0.62 0.18 95 1012.1
20260903205712 55 315 0.0 2.0 0.04 0.62 0.18 94 1012.0
20260903205213 55 315 0.0 2.0 0.04 0.62 0.18 94 1012.0
20260903204703 55 316 0.0 0.0 0.06 0.62 0.18 94 1012.0
20260903204205 55 316 0.0 0.0 0.06 0.62 0.18 94 1012.0
20260903203703 55 316 0.0 0.0 0.06 0.61 0.17 94 1012.0
20260903203203 55 316 0.0 3.0 0.08 0.60 0.17 94 1012.2
20260903202701 55 316 1.0 3.0 0.09 0.59 0.15 94 1012.4
20260903202159 55 196 0.0 3.0 0.08 0.58 0.14 94 1012.4
20260903201659 55 199 0.0 0.0 0.08 0.58 0.14 94 1012.2
20260903201200 55 199 0.0 0.0 0.08 0.58 0.14 93 1012.4
20260903200654 55 199 0.0 0.0 0.08 0.58 0.14 92 1012.4
20260903200357 55 199 0.0 0.0 0.08 0.58 0.14 91 1012.6
20260903195634 55 199 0.0 0.0 0.08 0.58 0.14 90 1012.6
20260903195619 55 199 0.0 0.0 0.08 0.58 0.14 90 1012.7
20260903194851 56 199 0.0 0.0 0.06 0.56 0.12 90 1012.7
20260903194124 56 199 0.0 0.0 0.06 0.56 0.12 89 1012.6
20260903193625 56 199 0.0 0.0 0.04 0.54 0.11 89 1012.6
20260903193125 56 199 0.0 0.0 0.01 0.51 0.08 89 1012.6
20260903192625 56 199 0.0 5.0 0.00 0.50 0.06 87 1012.5
20260903192121 56 199 0.0 5.0 0.00 0.50 0.06 85 1012.6
20260903191615 56 246 0.0 3.0 0.00 0.50 0.06 85 1012.6
20260903191327 56 188 0.0 3.0 0.00 0.50 0.06 87 1012.7
20260903190556 56 188 0.0 0.0 0.00 0.50 0.06 87 1012.6
20260903190303 56 188 0.0 3.0 0.00 0.50 0.06 88 1012.6
20260903185542 56 188 0.0 3.0 0.00 0.50 0.06 87 1012.6
20260903185038 56 188 0.0 3.0 0.00 0.50 0.06 88 1012.6
20260903184535 56 145 0.0 3.0 0.00 0.50 0.06 89 1012.4
20260903184250 56 140 0.0 3.0 0.00 0.50 0.06 89 1012.4
20260903183524 56 145 1.0 3.0 0.00 0.50 0.06 91 1012.4
20260903183019 55 340 1.0 3.0 0.00 0.50 0.06 92 1012.2
20260903182517 55 223 0.0 2.0 0.00 0.50 0.06 93 1012.2
20260903182016 55 223 0.0 4.0 0.00 0.50 0.06 92 1012.4
20260903181518 55 231 1.0 7.0 0.00 0.50 0.06 92 1012.2
20260903181017 54 259 0.0 7.0 0.00 0.50 0.06 91 1012.2
20260903180738 54 247 0.0 4.0 0.00 0.50 0.06 92 1012.6
20260903180017 54 176 0.0 4.0 0.00 0.50 0.06 91 1012.6
20260903175512 54 176 1.0 4.0 0.00 0.50 0.06 92 1012.6
20260903174957 54 325 0.0 5.0 0.00 0.50 0.06 92 1012.6
20260903174453 54 171 1.0 7.0 0.00 0.50 0.06 93 1012.5
20260903173952 54 329 1.0 8.0 0.00 0.50 0.06 94 1012.6
20260903173454 54 317 2.0 8.0 0.00 0.50 0.06 95 1012.6
20260903173217 54 249 0.0 7.0 0.00 0.50 0.06 95 1012.5
20260903172448 54 218 0.0 9.0 0.00 0.50 0.06 95 1012.4
20260903171951 53 204 1.0 9.0 0.00 0.50 0.06 96 1012.4
20260903171715 54 169 2.0 8.0 0.01 0.50 0.06 97 1012.1
20260903170938 53 199 1.0 5.0 0.01 0.50 0.06 98 1012.1
20260903170429 53 145 2.0 5.0 0.01 0.50 0.06 98 1012.1
20260903165924 53 153 0.0 3.0 0.01 0.50 0.06 98 1012.0
20260903165424 52 138 0.0 3.0 0.01 0.50 0.06 98 1012.0
20260903164924 52 126 0.0 4.0 0.01 0.50 0.06 97 1011.9